Weather History for Nassau, Bahamas

Change the Weather History Date:

Thursday, February 7, 2013

  Actual Average Record
Temperature  
Mean Temperature 72 °F -  
Max Temperature 82 °F 78 °F 84 °F (2003)
Min Temperature 62 °F 62 °F 55 °F (2006)
Cooling Degree Days 7    
Growing Degree Days 22 (Base 50)    
Moisture  
Dew Point 67 °F    
Average Humidity 81    
Maximum Humidity 94    
Minimum Humidity 60    
Precipitation  
Precipitation 0.00 in 0.05 in - ()
Sea Level Pressure  
Sea Level Pressure 30.04 in    
Wind  
Wind Speed 3 mph ()    
Max Wind Speed 12 mph    
Max Gust Speed -    
Visibility 6.9 miles    
Events      
Averages and records for this station are not official NWS values.
T = Trace of Precipitation, MM = Missing Value Source: Averaged Metar Reports

Daily Weather History Graph

Daily Weather History Graph

Search for Another Location

Airport:

Trip Planner

Search our weather history database for the weather conditions in past years. The results will help you decide how hot, cold, wet, or windy it might be!

Date:

Astronomy

Feb. 07, 2013 Rise Set
Actual Time 6:49 AM EST 5:59 PM EST
Civil Twilight 6:25 AM EST 6:22 PM EST
Nautical Twilight 5:58 AM EST 6:49 PM EST
Astronomical Twilight 5:31 AM EST 7:16 PM EST
Moon 4:17 AM EST (2/7) 3:29 PM EST (2/7)
Length of Visible Light 11h 57m
Length of Day
11h 09m
Waning Crescent, 9% of the Moon is Illuminated
Feb 7
Waning Crescent
Feb 10
New
Feb 17
First Quarter
Feb 25
Full
Mar 4
Last Quarter

Hourly Weather History & Observations

Time (EST) Temp. Heat Index Dew Point Humidity Pressure Visibility Wind Dir Wind Speed Gust Speed Precip Events Conditions
12:00 AM 68.0 °F - 62.6 °F 83% 30.08 in 6.2 mi Calm Calm - N/A   Partly Cloudy
1:00 AM 66 °F - 63 °F 85% 30.07 in 9 mi Calm Calm - -   Scattered Clouds
1:00 AM 68.0 °F - 62.6 °F 83% 30.07 in 6.2 mi Calm Calm - N/A   Partly Cloudy
2:00 AM 66.2 °F - 64.4 °F 94% 30.06 in 6.2 mi Calm Calm - N/A   Partly Cloudy
4:00 AM 64 °F - 61 °F 86% 30.05 in 9 mi Calm Calm - -   Scattered Clouds
4:00 AM 64.4 °F - 60.8 °F 88% 30.05 in 6.2 mi Calm Calm - N/A   Partly Cloudy
5:00 AM 66.2 °F - 62.6 °F 88% 30.05 in 6.2 mi Calm Calm - N/A   Partly Cloudy
6:00 AM 66.2 °F - 62.6 °F 88% 30.06 in 6.2 mi Calm Calm - N/A   Partly Cloudy
7:00 AM 64 °F - 62 °F 93% 30.06 in 9 mi Calm Calm - -   Scattered Clouds
7:00 AM 66.2 °F - 62.6 °F 88% 30.06 in 6.2 mi Calm Calm - N/A   Partly Cloudy
8:00 AM 68.0 °F - 64.4 °F 88% 30.07 in 6.2 mi Calm Calm - N/A   Partly Cloudy
9:00 AM 73.4 °F - 69.8 °F 88% 30.08 in 6.2 mi ENE 4.6 mph - N/A   Scattered Clouds
10:00 AM 79 °F - 69 °F 64% 30.07 in 9 mi ESE 9.2 mph - -   Partly Cloudy
10:00 AM 78.8 °F - 69.8 °F 74% 30.07 in 6.2 mi ESE 9.2 mph - N/A   Scattered Clouds
11:00 AM 77.0 °F - 68.0 °F 74% 30.08 in 6.2 mi ESE 9.2 mph - N/A   Scattered Clouds
12:00 PM 77.0 °F - 69.8 °F 78% 30.07 in 6.2 mi East 9.2 mph - N/A   Scattered Clouds
1:00 PM 80 °F - 69 °F 60% 30.04 in 9 mi SE 9.2 mph - -   Partly Cloudy
1:00 PM 80.6 °F 83.2 °F 68.0 °F 65% 30.04 in 6.2 mi SE 9.2 mph - N/A   Scattered Clouds
2:00 PM 78.8 °F - 68.0 °F 69% 30.02 in 6.2 mi SE 11.5 mph - N/A   Scattered Clouds
3:00 PM 78.8 °F - 69.8 °F 74% 29.98 in 6.2 mi SE 11.5 mph - N/A   Scattered Clouds
4:00 PM 80 °F - 68 °F 60% 29.98 in 9 mi ESE 11.5 mph - -   Scattered Clouds
4:00 PM 80.6 °F 83.2 °F 68.0 °F 65% 29.98 in 6.2 mi ESE 11.5 mph - N/A   Partly Cloudy
5:00 PM 77.0 °F - 69.8 °F 78% 29.96 in 6.2 mi SE 10.4 mph - N/A   Scattered Clouds
6:00 PM 75.2 °F - 68.0 °F 78% 29.99 in 6.2 mi SE 8.1 mph - N/A   Scattered Clouds
7:00 PM 75 °F - 71 °F 83% 30.00 in 9 mi SE 3.5 mph - -   Scattered Clouds
7:00 PM 75.2 °F - 71.6 °F 89% 30.00 in 6.2 mi SE 3.5 mph - N/A   Partly Cloudy
8:00 PM 73.4 °F - 69.8 °F 88% 30.02 in 6.2 mi SE 3.5 mph - N/A   Partly Cloudy
9:00 PM 73.4 °F - 69.8 °F 88% 30.03 in 6.2 mi SE 3.5 mph - N/A   Partly Cloudy
10:00 PM 73 °F - 70 °F 88% 30.04 in 9 mi SE 2.3 mph - -   Scattered Clouds
10:00 PM 73.4 °F - 69.8 °F 88% 30.04 in 6.2 mi Variable 2.3 mph - N/A   Partly Cloudy
11:00 PM 71.6 °F - 68.0 °F 88% 30.03 in 6.2 mi Variable 2.3 mph - N/A   Partly Cloudy